Port Angeles, WA
on Saturday, December 15, 2012

Saturday
Previous Day Next Day
Daily Summary
 ActualAverageRecord
Temperature
Mean Temperature °F °F  
Max Temperature 43°F 46°F 58°F (1956)
Min Temperature 32°F 36°F 19°F (2008)
Degree Days
Heating Degree Days 28    
Moisture
Dew Point 34°F   
Average Humidity 85    
Maximum Humidity 93    
Minimum Humidity 76    
Precipitation
Precipitation 0.14 in in in ()
Wind
Wind Speed mph   
Max Wind Speed mph   
Max Gust Speed mph   
Visibility 10 miles   
Events Rain   
Averages and records for this station are not official NWS values.
Key: T is trace of precipitation, MM is missing value
Source: NWS Daily Summary
Seasonal Weather Averages
Time(PST)TemperatureDew PointHumidity Pressure Visibility Wind DirectionWind SpeedGust SpeedPrecipitationEvents Conditions
12:53 AM 32.0°F 28.9°F 88% 29.84 in 10.0 miles North - - N/A   Partly Cloudy
1:53 AM 36.0°F 28.9°F 76% 29.83 in 10.0 miles North - - N/A   Clear
2:53 AM 34.0°F 30.0°F 85% 29.79 in 10.0 miles North - - N/A   Mostly Cloudy
3:53 AM 34.0°F 30.0°F 85% 29.76 in 10.0 miles North - - N/A   Overcast
4:53 AM 36.0°F 28.9°F 76% 29.73 in 10.0 miles North - - N/A   Overcast
5:53 AM 33.8°F 30.2°F 87% 29.69 in 10.0 miles North - - N/A   Overcast
6:53 AM 37.0°F 30.0°F 76% 29.65 in 10.0 miles North - - N/A   Overcast
7:53 AM 36.0°F 30.9°F 82% 29.60 in 10.0 miles North - - N/A   Overcast
8:53 AM 35.1°F 33.1°F 92% 29.57 in 10.0 miles North - - N/A   Overcast
9:53 AM 37.0°F 33.1°F 86% 29.54 in 10.0 miles North - - 0.00 in Rain Light Rain
10:53 AM 41.0°F 34.0°F 76% 29.49 in 10.0 miles North - - 0.00 in Rain Light Rain
11:53 AM 42.1°F 35.1°F 76% 29.45 in 10.0 miles North - - 0.00 in Rain Light Rain
12:53 PM 43.0°F 37.0°F 80% 29.46 in 10.0 miles North - - 0.00 in   Overcast
1:53 PM 42.1°F 39.0°F 89% 29.48 in 10.0 miles North - - 0.00 in Rain Light Rain
2:53 PM 42.1°F 39.9°F 92% 29.47 in 10.0 miles North - - 0.01 in   Overcast
3:53 PM 42.1°F 39.0°F 89% 29.49 in 10.0 miles North - - N/A   Overcast
4:53 PM 41.0°F 37.9°F 89% 29.51 in 9.0 miles North - - 0.00 in Rain Light Rain
5:53 PM 39.9°F 37.9°F 93% 29.53 in 8.0 miles North - - 0.03 in Rain Light Rain
6:53 PM 41.0°F 37.0°F 86% 29.55 in 10.0 miles North - - 0.00 in Rain Light Rain
7:53 PM 39.9°F 36.0°F 86% 29.58 in 10.0 miles North - - 0.00 in Rain Light Rain
8:06 PM 39.9°F 35.1°F 83% 29.58 in 5.0 miles North - - 0.02 in Rain Rain
8:53 PM 39.0°F 35.1°F 86% 29.61 in 10.0 miles North - - 0.08 in   Overcast
9:09 PM 39.2°F 33.8°F 81% 29.61 in 10.0 miles North - - N/A Rain Light Rain
9:21 PM 37.9°F 34.0°F 86% 29.60 in 10.0 miles North - - 0.01 in Rain Light Rain
9:53 PM 37.9°F 34.0°F 86% 29.62 in 10.0 miles North - - 0.01 in   Partly Cloudy
10:33 PM 39.0°F 35.1°F 86% 29.63 in 10.0 miles North - - 0.01 in Rain Light Rain
10:53 PM 37.0°F 34.0°F 89% 29.62 in 10.0 miles North - - 0.01 in Rain Light Rain
11:03 PM 37.4°F 33.8°F 87% 29.62 in 10.0 miles North - - N/A   Scattered Clouds
11:53 PM 37.9°F 34.0°F 86% 29.64 in 10.0 miles North - - 0.00 in   Scattered Clouds
Moon Phase
Dec. 15 Dec. 20 Dec. 28 Jan. 04 Jan. 11
Sunrise:07:58 AM (PST) Moon Rise:09:46 AM (PST)12/15
Sunset:04:20 PM (PST) Moon Set:07:42 PM (PST)12/15

Copyright © 2014 The Weather Underground, Inc.